Tracking 28096 objects as of 29-Sep-2023
HD Live streaming from Space Station
objects crossing your sky now

DELTA 1 DEB

Track DELTA 1 DEB now!
10-day predictions


NORAD ID: 10843
Int'l Code: 1976-077CP
Perigee: 1,344.6 km
Apogee: 1,528.4 km
Inclination: 101.6 °
Period: 114.4 minutes
Semi major axis: 7807 km
RCS: 0.0189 m2 (small)
Launch date: July 29, 1976
Source: United States (US)
Launch site: AIR FORCE WESTERN TEST RANGE (AFWTR)

Note: This is SATELLITE DEBRIS
Your satellite tracking list
Your tracking list is empty




NASA's NSSDC Master Catalog

Two Line Element Set (TLE):
1 10843U 76077CP  23271.36827653  .00000019  00000-0  36226-3 0  9990
2 10843 101.5647 235.8224 0117735  70.6975  83.7944 12.58442939164346
Source of the keplerian elements: AFSPC